Zurück zum Katalog

LAGEOS 2

AktivWissenschaftMEO
NORAD 22195·PAYLOAD·🇮🇹 Italy

Gestartet Oct 22, 1992 von Cape Canaveral Space Force Station

Loading…

Nächste Überflüge (nächste 24 Stunden)

TLE

AktuellSource: CelesTrak SupGP

Epoche: Sep 14, 2026, 00:00 UTC

1 22195C 92070B   26257.00000000  .00000000  00000+0  00000+0 0  2574
2 22195  52.6439 210.5218 0138088 226.1857 218.8723  6.47293805    14

Verfolge LAGEOS 2 in Echtzeit mit AllMySat

Download on the App Store